This is the latest recevied weather packets stored in our database for station/object VE6KEE-13. If no packets are shown the sender has not sent any weather packets the latest 10 day(s).
| Time | Temp. | Humidity | Pressure | Rain* | Wind** | Luminosity | Snow |
|---|---|---|---|---|---|---|---|
| 1778075509 | 0.56° C | 46% | 1018.9 hPa | 0 mm | - | - | - |
| 1778074611 | 0° C | 48% | 1019.3 hPa | 0 mm | - | - | - |
| 1778073711 | -0.56° C | 48% | 1019.4 hPa | 0 mm | - | - | - |
| 1778072811 | -1.11° C | 48% | 1019.4 hPa | 0 mm | - | - | - |
| 1778071905 | -1.11° C | 48% | 1019.5 hPa | 0 mm | - | - | - |
| 1778071005 | -1.11° C | 48% | 1019.5 hPa | 0 mm | - | - | - |
| 1778070104 | -1.11° C | 48% | 1019.6 hPa | 0 mm | - | - | - |
| 1778069203 | -1.67° C | 49% | 1019.8 hPa | 0 mm | - | - | - |
| 1778068303 | -1.67° C | 50% | 1019.9 hPa | 0 mm | - | - | - |
| 1778067409 | -1.67° C | 50% | 1019.9 hPa | 0 mm | - | - | - |
| 1778066501 | -1.67° C | 49% | 1020 hPa | 0 mm | - | - | - |
| 1778065600 | -1.11° C | 48% | 1020.1 hPa | 0 mm | - | - | - |
| 1778064699 | -1.11° C | 47% | 1020.2 hPa | 0 mm | - | - | - |
| 1778063799 | -0.56° C | 46% | 1020.3 hPa | 0 mm | - | - | - |
| 1778062899 | -0.56° C | 45% | 1020.5 hPa | 0 mm | - | - | - |
| 1778062003 | 0° C | 45% | 1020.5 hPa | 0 mm | - | - | - |
| 1778060196 | 0° C | 44% | 1020.7 hPa | 0 mm | - | - | - |
| 1778059298 | 0.56° C | 43% | 1020.9 hPa | 0 mm | - | - | - |
| 1778058394 | 0.56° C | 43% | 1021.1 hPa | 0 mm | - | - | - |
| 1778057494 | 1.11° C | 42% | 1021.1 hPa | 0 mm | - | - | - |
| 1778056597 | 0.56° C | 42% | 1021.2 hPa | 0 mm | - | - | - |
| 1778055692 | 1.11° C | 42% | 1021.2 hPa | 0.25 mm | - | - | - |
| 1778054791 | 0.56° C | 43% | 1021.4 hPa | 0.25 mm | - | - | - |
| 1778053891 | 0.56° C | 43% | 1021.5 hPa | 0.25 mm | - | - | - |
| 1778052990 | 1.11° C | 43% | 1021.6 hPa | 0.25 mm | - | - | - |
* Rain since midnight (hover to see other rain measurements)
** Current wind speed in m/s (hover to see current wind gust speed)